Flag for Canada Weather past 2 weeks in Brampton, Ontario, Canada

Now
10 °F

Passing clouds.


Feels Like: -6 °F
Forecast: 10 / 16 °F
Wind: 15 mph from North

Location: Toronto Pearson International Airport

Current Time: Jan 25, 2015 at 9:48:59 PM

Latest Report: Jan 25, 2015 at 9:00 PM


Visibility: 15 mi

Pressure: 30.10 "Hg

Humidity: 61%

Dew point: 0 °F

Location of BramptonLocation

Historic Weather in Brampton — Graph

°F

Brampton temperature yesterday

Maximum temperature yesterday: 32 °F (at 8:00 PM)
Minimum temperature yesterday: 21 °F (at 12:00 AM)
Average temperature yesterday: 28 °F

Past Weeks' High & Low Weather Summary

 TemperatureHumidityPressure
High43 °F (Jan 18, 4:00 AM)93% (Jan 18, 9:00 AM)30.86 "Hg (Jan 18, 9:00 AM)
Low-6 °F (Jan 13, 6:00 AM)38% (Jan 25, 1:00 PM)29.48 "Hg (Jan 24, 4:00 PM)
Average21 °F72%30.11 "Hg
* Reported Jan 10 8:00 PM — Jan 25 8:00 PM, Brampton, Weather by CustomWeather, © 2014

Note: Actual official high and low records may vary slightly from our data, if they occured in-between our weather recording intervals... More about our weather records

Advertising

Brampton weather history for previous 24 hours

 ConditionsComfort  
Time TempWeatherWind HumidityBarometerVisibility
8:00 PM
Jan 25
10 °FPassing clouds.16 mph61%30.09 "Hg15 mi
7:00 PM12 °FOvercast.14 mph57%30.10 "Hg15 mi
6:00 PM14 °FPassing clouds.14 mph44%30.05 "Hg15 mi
5:00 PM16 °FPartly sunny.14 mph45%30.02 "Hg15 mi
4:00 PM16 °FPartly sunny.13 mph45%30.01 "Hg15 mi
3:00 PM18 °FScattered clouds.9 mph38%29.99 "Hg15 mi
2:00 PM19 °FScattered clouds.9 mph38%29.98 "Hg15 mi
1:00 PM18 °FPartly sunny.6 mph38%29.98 "Hg15 mi
12:00 PM16 °FScattered clouds.9 mph45%29.98 "Hg15 mi
11:00 AM14 °FPassing clouds.13 mph57%29.98 "Hg15 mi
10:00 AM12 °FPassing clouds.17 mph62%29.95 "Hg15 mi
9:00 AM10 °FPassing clouds.21 mph72%29.93 "Hg15 mi
8:00 AM10 °FPassing clouds.15 mph72%29.90 "Hg15 mi
7:00 AM12 °FPassing clouds.14 mph73%29.88 "Hg15 mi
6:00 AM12 °FPassing clouds.15 mph73%29.83 "Hg15 mi
5:00 AM14 °FClear.16 mph79%29.79 "Hg15 mi
4:00 AM18 °FPassing clouds.14 mph73%29.74 "Hg15 mi
3:00 AM21 °FPassing clouds.21 mph74%29.69 "Hg15 mi
2:00 AM25 °FPassing clouds.23 mph69%29.64 "Hg15 mi
1:00 AM27 °FOvercast.18 mph80%29.59 "Hg15 mi
12:00 AM28 °FPartly cloudy.22 mph74%29.57 "Hg15 mi
11:00 PM
Jan 24
32 °FPassing clouds.16 mph69%29.54 "Hg15 mi
10:00 PM32 °FPartly cloudy.15 mph80%29.52 "Hg15 mi
9:00 PM32 °FLight snow. Overcast.14 mph87%29.52 "Hg4 mi
Weather by CustomWeather, © 2014

See weather overviewHow to use our weather pages